Location: ??? ?????
(30.6482°N, 60.5850°E)
Time: 05:18:20
(UTC+00:00)

Cosmos 2227 Rocket - Pass Details

Date: 09 April 2020
Orbit: 838 x 846 km, 71.0° (Epoch: 24 May)

Event Time Altitude Azimuth Distance (km) Brightness Sun altitude
Exits shadow 22:51:04 18° 343° (NNW) 1,935 4.2 -33.5°
Drops below altitude 10° 22:52:52 10° 356° (N) 2,458 4.9 -33.2°
Sets 22:55:39 0° 8° (N) 3,397 5.9 -32.7°
